Regional Weather Roundup
Issued by NWS Charleston, WV

Home | Current Version | Previous Version | Graphics & Text | Print | Product List | Glossary On
Versions: 1 2 3 4 5 6 7 8 9 10 11 12 13 14 15 16 17 18 19 20 21 22 23 24 25 26 27 28 29 30 31 32 33 34 35 36 37 38 39 40 41 42 43 44 45 46 47 48 49 50
763
ASUS41 KRLX 050410
RWRRLX
West Virginia Regional Weather Roundup
National Weather Service Charleston WV
1200 AM EDT THU MAY 05 2016

Note: "fair" indicates few or no clouds below 12,000 feet with no
significant weather and/or obstructions to visibility.

WVZ003-050500-
Northern Panhandle of West Virginia

CITY           SKY/WX    TMP DP  RH WIND       PRES   REMARKS
WHEELING       LGT RAIN  49  47  93 S3        29.68F FOG
$$

WVZ009-050500-
Northwest West Virginia

CITY           SKY/WX    TMP DP  RH WIND       PRES   REMARKS
PARKERSBURG    CLOUDY    49  47  93 CALM      29.72F
$$

WVZ006-050500-
Western West Virginia

CITY           SKY/WX    TMP DP  RH WIND       PRES   REMARKS
HUNTINGTON     MOCLDY    48  44  86 NW3       29.73S
$$

WVZ015-050500-
West Central West Virginia

CITY           SKY/WX    TMP DP  RH WIND       PRES   REMARKS
CHARLESTON     LGT RAIN  51  49  92 NW6       29.69F FOG
$$

WVZ022-031-050500-
North Central West Virginia

CITY           SKY/WX    TMP DP  RH WIND       PRES   REMARKS
CLARKSBURG     LGT RAIN  49  48  97 SE3       29.70S
MORGANTOWN     CLOUDY    52  45  77 CALM      29.70F
$$

WVZ025-035-042-045-050500-
Southern West Virginia

CITY           SKY/WX    TMP DP  RH WIND       PRES   REMARKS
BECKLEY        CLOUDY    47  44  90 CALM      29.69F
LOGAN          NOT AVBL
BLUEFIELD      CLOUDY    45  42  89 NW3       29.70F
LEWISBURG      CLOUDY    48  42  81 CALM      29.69F
$$

WVZ047-050500-
Northern Mountains of West Virginia

CITY           SKY/WX    TMP DP  RH WIND       PRES   REMARKS
ELKINS         CLOUDY    48  42  80 CALM      29.71F
$$

WVZ052-050500-
Eastern Panhandle of West Virginia

CITY           SKY/WX    TMP DP  RH WIND       PRES   REMARKS
MARTINSBURG    CLOUDY    54  52  93 NE6       29.68S
PETERSBURG     MOCLDY    55  46  71 CALM      29.67S
$$




USA.gov is the U.S. government's official web portal to all federal, state and local government web resources and services.